STARLINK-35569

Last updated on Tue Dec 16 2025 00:02:05 GMT+0000 (Coordinated Universal Time)

1 66471U 25262R 25349.33335648 .00005815 00000+0 14635-3 0 9999 2 66471 43.0005 56.2442 0001413 272.2901 55.5721 15.40702889 6053
UTC large
Height (km)
Speed (km/s)
/
Latitude / Longitude
Inclination (degrees)
Orbital Period (minutes)
Azimuth
Elevation
Range (km)
Doppler Factor

Next 0 passes for location: London (51.5072 / 0.1276)

Sorry there are no passes over London.